Winston Salem, NC

10:06 AM EDT on September 29, 2016 (GMT -0400)
Smith Reynolds

Weather History for KINT - November, 2012

Change the Weather History Date:

Monday, November 12, 2012

  Actual Average Record
Temperature  
Mean Temperature 60 °F -  
Max Temperature 66 °F 57 °F 78 °F (1985)
Min Temperature 53 °F 39 °F 21 °F (1973)
Degree Days  
Heating Degree Days 6    
Growing Degree Days 10 (Base 50)    
Moisture  
Dew Point 57 °F    
Average Humidity 85    
Maximum Humidity 96    
Minimum Humidity 70    
Precipitation  
Precipitation 0.01 in - - ()
Sea Level Pressure  
Sea Level Pressure 30.28 in    
Wind  
Wind Speed 4 mph (SSE)    
Max Wind Speed 14 mph    
Max Gust Speed 24 mph    
Visibility 10 miles    
Events      
Averages and records for this station are not official NWS values.
T = Trace of Precipitation, MM = Missing Value Source: NWS Daily Summary

Daily Weather History Graph

Daily Weather History Graph

Search for Another Location

Airport or City:

Trip Planner

Search our weather history database for the weather conditions in past years. The results will help you decide how hot, cold, wet, or windy it might be!

Date:

Astronomy

Nov. 12, 2012 Rise Set
Actual Time 6:55 AM EST 5:14 PM EST
Civil Twilight 6:27 AM EST 5:41 PM EST
Nautical Twilight 5:57 AM EST 6:12 PM EST
Astronomical Twilight 5:26 AM EST 6:43 PM EST
Moon 5:20 AM EST (11/12) 4:17 PM EST (11/12)
Length of Visible Light 11h 14m
Length of Day
10h 19m
Waning Crescent, 2% of the Moon is Illuminated
Nov 12
Waning Crescent
Nov 13
New
Nov 20
First Quarter
Nov 28
Full
Dec 6
Last Quarter

Hourly Weather History & Observations

Time (EST) Temp. Dew Point Humidity Pressure Visibility Wind Dir Wind Speed Gust Speed Precip Events Conditions
12:54 AM 57.9 °F 53.1 °F 84% 30.40 in 10.0 mi Calm Calm - N/A   Clear
1:54 AM 55.9 °F 53.1 °F 90% 30.38 in 10.0 mi SSE 4.6 mph - N/A   Clear
2:54 AM 57.0 °F 53.1 °F 87% 30.37 in 10.0 mi Calm Calm - N/A   Clear
3:54 AM 55.0 °F 53.1 °F 93% 30.36 in 10.0 mi Calm Calm - N/A   Clear
4:54 AM 55.0 °F 53.1 °F 93% 30.37 in 10.0 mi Calm Calm - N/A   Clear
5:54 AM 53.1 °F 52.0 °F 96% 30.35 in 7.0 mi SE 3.5 mph - N/A   Clear
6:54 AM 55.0 °F 53.1 °F 93% 30.35 in 8.0 mi SSE 3.5 mph - N/A   Clear
7:54 AM 57.0 °F 54.0 °F 89% 30.36 in 10.0 mi Calm Calm - N/A   Mostly Cloudy
8:31 AM 57.2 °F 55.4 °F 94% 30.37 in 10.0 mi SSE 4.6 mph - N/A   Mostly Cloudy
8:54 AM 59.0 °F 55.0 °F 87% 30.36 in 10.0 mi South 3.5 mph - N/A   Mostly Cloudy
9:31 AM 60.8 °F 55.4 °F 82% 30.36 in 10.0 mi SSE 4.6 mph - N/A   Mostly Cloudy
9:54 AM 62.1 °F 55.9 °F 80% 30.35 in 10.0 mi SSE 8.1 mph - N/A   Mostly Cloudy
10:54 AM 64.0 °F 55.9 °F 75% 30.34 in 10.0 mi SSE 6.9 mph - N/A   Mostly Cloudy
11:54 AM 66.9 °F 57.0 °F 70% 30.31 in 10.0 mi South 13.8 mph 19.6 mph N/A   Mostly Cloudy
12:54 PM 66.0 °F 59.0 °F 78% 30.28 in 10.0 mi South 9.2 mph - 0.01 in   Overcast
1:54 PM 66.9 °F 59.0 °F 76% 30.24 in 10.0 mi SSE 9.2 mph - N/A   Overcast
2:54 PM 66.0 °F 57.9 °F 75% 30.22 in 10.0 mi South 12.7 mph 24.2 mph N/A   Overcast
3:34 PM 64.4 °F 57.2 °F 77% 30.23 in 10.0 mi South 10.4 mph 19.6 mph N/A   Scattered Clouds
3:54 PM 64.9 °F 57.9 °F 78% 30.22 in 10.0 mi South 8.1 mph 17.3 mph N/A   Partly Cloudy
4:54 PM 64.0 °F 57.9 °F 80% 30.20 in 10.0 mi SSE 4.6 mph - N/A   Clear
5:16 PM 64.4 °F 59.0 °F 83% 30.22 in 10.0 mi South 5.8 mph - N/A   Mostly Cloudy
5:49 PM 62.6 °F 59.0 °F 88% 30.22 in 10.0 mi SSE 6.9 mph - N/A   Overcast
5:54 PM 63.0 °F 59.0 °F 87% 30.21 in 10.0 mi SSE 4.6 mph - N/A   Overcast
6:54 PM 63.0 °F 59.0 °F 87% 30.20 in 10.0 mi South 5.8 mph - N/A   Mostly Cloudy
7:54 PM 63.0 °F 60.1 °F 90% 30.19 in 10.0 mi South 5.8 mph - N/A   Overcast
8:54 PM 64.0 °F 60.1 °F 87% 30.17 in 10.0 mi South 4.6 mph - N/A   Overcast
9:54 PM 64.0 °F 60.1 °F 87% 30.17 in 10.0 mi South 6.9 mph - N/A   Overcast
10:54 PM 64.0 °F 60.1 °F 87% 30.16 in 10.0 mi South 9.2 mph - N/A   Overcast
11:54 PM 64.0 °F 60.1 °F 87% 30.16 in 10.0 mi South 6.9 mph - N/A   Overcast